Torna al catalogo

FENGYUN 1C DEB

LostSSO
NORAD 31684·DEBRIS·🇨🇳 China

Lanciato May 10, 1999 da Taiyuan Satellite Launch Center

Loading…

Prossimi Passaggi (prossime 24 ore)

TLE

ObsoletoSource: Space-Track

Epoca: Aug 21, 2022, 01:44 UTC

1 31684U 99025CCS 22233.07256797  .00001341  00000-0  74417-3 0  9997
2 31684  98.9645 317.6805 0058013 149.4202 211.0373 14.12058536782902

Traccia FENGYUN 1C DEB in tempo reale con AllMySat

Download on the App Store